Time,TemperatureF,DewpointF,PressureIn,WindDirection,WindDirectionDegrees,WindSpeedMPH,WindSpeedGustMPH,Humidity,HourlyPrecipIn,Conditions,Clouds,dailyrainin,SoftwareType,DateUTC
2013-07-29 00:05:00,52.6,51.0,29.78,West,259,1.0,1.0,95,0.00,,,0.00,weatherlink.com 1.10,2013-07-29 04:05:00,
2013-07-29 00:20:00,52.2,51.0,29.78,WSW,243,0.0,1.0,95,0.00,,,0.00,weatherlink.com 1.10,2013-07-29 04:20:00,
2013-07-29 00:35:00,52.0,51.0,29.78,WNW,285,0.0,1.0,95,0.00,,,0.00,weatherlink.com 1.10,2013-07-29 04:35:00,
2013-07-29 00:50:00,51.4,50.0,29.78,WSW,248,0.0,1.0,95,0.00,,,0.00,weatherlink.com 1.10,2013-07-29 04:50:00,
2013-07-29 01:05:00,51.2,50.0,29.78,WSW,250,1.0,1.0,96,0.00,,,0.00,weatherlink.com 1.10,2013-07-29 05:05:00,
2013-07-29 01:20:00,51.1,50.0,29.78,WSW,253,0.0,1.0,96,0.00,,,0.00,weatherlink.com 1.10,2013-07-29 05:20:00,
2013-07-29 01:35:00,51.0,50.0,29.79,WSW,253,0.0,0.0,96,0.00,,,0.00,weatherlink.com 1.10,2013-07-29 05:35:00,
2013-07-29 01:50:00,51.1,50.0,29.79,WSW,253,0.0,0.0,96,0.00,,,0.00,weatherlink.com 1.10,2013-07-29 05:50:00,
2013-07-29 02:05:00,51.6,51.0,29.79,SW,236,0.0,1.0,96,0.00,,,0.00,weatherlink.com 1.10,2013-07-29 06:05:00,
2013-07-29 02:20:00,52.1,51.0,29.79,West,264,0.0,1.0,96,0.00,,,0.00,weatherlink.com 1.10,2013-07-29 06:20:00,
2013-07-29 02:35:00,51.9,51.0,29.79,West,268,0.0,0.0,96,0.00,,,0.00,weatherlink.com 1.10,2013-07-29 06:35:00,
2013-07-29 02:50:00,52.2,51.0,29.79,WSW,243,1.0,3.0,97,0.00,,,0.00,weatherlink.com 1.10,2013-07-29 06:50:00,
2013-07-29 03:05:00,52.5,52.0,29.79,WSW,248,0.0,1.0,97,0.00,,,0.00,weatherlink.com 1.10,2013-07-29 07:05:00,
2013-07-29 03:20:00,52.8,52.0,29.80,SE,135,0.0,0.0,97,0.00,,,0.00,weatherlink.com 1.10,2013-07-29 07:20:00,
2013-07-29 03:35:00,53.1,52.0,29.80,SSW,198,0.0,1.0,97,0.00,,,0.00,weatherlink.com 1.10,2013-07-29 07:35:00,
2013-07-29 03:51:00,53.2,52.0,29.80,SW,222,0.0,0.0,97,0.00,,,0.00,weatherlink.com 1.10,2013-07-29 07:51:00,
2013-07-29 04:06:00,53.3,53.0,29.80,West,279,0.0,1.0,97,0.00,,,0.00,weatherlink.com 1.10,2013-07-29 08:06:00,
2013-07-29 04:21:00,53.4,53.0,29.80,West,261,0.0,1.0,97,0.00,,,0.00,weatherlink.com 1.10,2013-07-29 08:21:00,
2013-07-29 04:36:00,53.7,53.0,29.80,WSW,254,0.0,1.0,97,0.00,,,0.00,weatherlink.com 1.10,2013-07-29 08:36:00,
2013-07-29 04:51:00,53.9,53.0,29.80,West,271,0.0,2.0,97,0.00,,,0.00,weatherlink.com 1.10,2013-07-29 08:51:00,
2013-07-29 05:06:00,54.3,54.0,29.80,WNW,283,1.0,4.0,97,0.00,,,0.00,weatherlink.com 1.10,2013-07-29 09:06:00,
2013-07-29 05:21:00,54.5,54.0,29.81,West,279,0.0,2.0,97,0.00,,,0.00,weatherlink.com 1.10,2013-07-29 09:21:00,
2013-07-29 05:36:00,54.7,54.0,29.81,NNW,347,0.0,2.0,96,0.00,,,0.00,weatherlink.com 1.10,2013-07-29 09:36:00,
2013-07-29 05:51:00,54.8,54.0,29.82,SW,232,0.0,2.0,96,0.00,,,0.00,weatherlink.com 1.10,2013-07-29 09:51:00,
2013-07-29 06:21:00,54.7,54.0,29.83,NNW,347,0.0,0.0,96,0.01,,,0.01,weatherlink.com 1.10,2013-07-29 10:21:00,
2013-07-29 06:36:00,54.6,54.0,29.83,WSW,245,0.0,2.0,96,0.01,,,0.01,weatherlink.com 1.10,2013-07-29 10:36:00,
2013-07-29 06:51:00,54.6,54.0,29.84,WSW,256,0.0,1.0,96,0.01,,,0.01,weatherlink.com 1.10,2013-07-29 10:51:00,
2013-07-29 07:36:00,54.5,53.0,29.84,WNW,290,0.0,2.0,94,0.01,,,0.02,weatherlink.com 1.10,2013-07-29 11:36:00,
2013-07-29 08:06:00,54.6,53.0,29.84,NW,304,0.0,2.0,95,0.00,,,0.02,weatherlink.com 1.10,2013-07-29 12:06:00,
2013-07-29 09:36:00,55.9,54.0,29.86,SW,215,0.0,6.0,93,0.00,,,0.02,weatherlink.com 1.10,2013-07-29 13:36:00,
2013-07-29 09:51:00,56.1,54.0,29.86,West,270,6.0,9.0,93,0.00,,,0.02,weatherlink.com 1.10,2013-07-29 13:51:00,
2013-07-29 10:21:00,57.5,55.0,29.87,WSW,242,3.0,8.0,91,0.00,,,0.02,weatherlink.com 1.10,2013-07-29 14:21:00,
2013-07-29 10:36:00,57.8,56.0,29.87,SW,232,2.0,7.0,92,0.00,,,0.02,weatherlink.com 1.10,2013-07-29 14:36:00,
2013-07-29 11:21:00,60.0,57.0,29.89,NW,304,3.0,6.0,88,0.00,,,0.02,weatherlink.com 1.10,2013-07-29 15:21:00,
2013-07-29 11:52:00,59.3,55.0,29.89,West,262,4.0,9.0,86,0.00,,,0.02,weatherlink.com 1.10,2013-07-29 15:52:00,
2013-07-29 12:07:00,60.6,56.0,29.89,NNE,14,6.0,11.0,85,0.00,,,0.02,weatherlink.com 1.10,2013-07-29 16:07:00,
2013-07-29 12:52:00,60.9,56.0,29.90,NNW,338,2.0,10.0,84,0.00,,,0.02,weatherlink.com 1.10,2013-07-29 16:52:00,
2013-07-29 13:07:00,61.0,56.0,29.90,WSW,257,4.0,13.0,82,0.00,,,0.02,weatherlink.com 1.10,2013-07-29 17:07:00,
2013-07-29 13:22:00,63.3,57.0,29.90,SW,226,2.0,11.0,79,0.00,,,0.02,weatherlink.com 1.10,2013-07-29 17:22:00,
2013-07-29 13:37:00,64.2,57.0,29.90,West,267,3.0,10.0,77,0.00,,,0.02,weatherlink.com 1.10,2013-07-29 17:37:00,
2013-07-29 13:52:00,63.7,57.0,29.91,NNW,345,5.0,10.0,79,0.00,,,0.02,weatherlink.com 1.10,2013-07-29 17:52:00,
2013-07-29 14:07:00,64.4,57.0,29.91,NNE,20,2.0,10.0,78,0.00,,,0.02,weatherlink.com 1.10,2013-07-29 18:07:00,
2013-07-29 14:22:00,63.7,56.0,29.92,NW,325,3.0,10.0,77,0.00,,,0.02,weatherlink.com 1.10,2013-07-29 18:22:00,
2013-07-29 14:36:00,64.5,57.0,29.92,WNW,295,6.0,13.0,76,0.00,,,0.02,weatherlink.com 1.10,2013-07-29 18:36:00,
2013-07-29 14:52:00,65.3,57.0,29.92,NW,323,2.0,13.0,75,0.00,,,0.02,weatherlink.com 1.10,2013-07-29 18:52:00,
2013-07-29 15:07:00,64.9,58.0,29.93,WNW,297,4.0,15.0,77,0.00,,,0.02,weatherlink.com 1.10,2013-07-29 19:07:00,
2013-07-29 15:52:00,65.5,57.0,29.93,WNW,297,4.0,12.0,74,0.00,,,0.02,weatherlink.com 1.10,2013-07-29 19:52:00,
2013-07-29 16:07:00,65.9,59.0,29.93,NW,318,3.0,9.0,77,0.00,,,0.02,weatherlink.com 1.10,2013-07-29 20:07:00,
2013-07-29 16:22:00,65.5,57.0,29.94,SW,223,1.0,12.0,74,0.00,,,0.02,weatherlink.com 1.10,2013-07-29 20:22:00,
2013-07-29 16:37:00,65.7,57.0,29.95,WSW,250,1.0,10.0,73,0.00,,,0.02,weatherlink.com 1.10,2013-07-29 20:37:00,
2013-07-29 16:52:00,66.1,57.0,29.95,West,277,2.0,10.0,73,0.00,,,0.02,weatherlink.com 1.10,2013-07-29 20:52:00,
2013-07-29 17:07:00,66.1,56.0,29.95,NNW,341,7.0,9.0,71,0.00,,,0.02,weatherlink.com 1.10,2013-07-29 21:07:00,
2013-07-29 17:37:00,66.5,56.0,29.95,NW,311,3.0,9.0,69,0.00,,,0.02,weatherlink.com 1.10,2013-07-29 21:37:00,
2013-07-29 17:53:00,66.2,57.0,29.96,WNW,299,7.0,8.0,71,0.00,,,0.02,weatherlink.com 1.10,2013-07-29 21:53:00,
2013-07-29 18:07:00,66.3,56.0,29.95,North,356,2.0,12.0,69,0.00,,,0.02,weatherlink.com 1.10,2013-07-29 22:07:00,
2013-07-29 18:22:00,66.3,55.0,29.96,NNW,336,4.0,8.0,67,0.00,,,0.02,weatherlink.com 1.10,2013-07-29 22:22:00,
2013-07-29 18:37:00,65.9,53.0,29.96,NW,319,3.0,9.0,64,0.00,,,0.02,weatherlink.com 1.10,2013-07-29 22:37:00,
2013-07-29 18:52:00,66.0,54.0,29.97,West,276,2.0,11.0,66,0.00,,,0.02,weatherlink.com 1.10,2013-07-29 22:52:00,
2013-07-29 19:07:00,66.1,54.0,29.97,South,173,3.0,6.0,66,0.00,,,0.02,weatherlink.com 1.10,2013-07-29 23:07:00,
2013-07-29 19:23:00,65.7,54.0,29.97,NW,305,1.0,8.0,66,0.00,,,0.02,weatherlink.com 1.10,2013-07-29 23:23:00,
2013-07-29 19:53:00,64.1,53.0,29.99,WSW,243,0.0,5.0,68,0.00,,,0.02,weatherlink.com 1.10,2013-07-29 23:53:00,
2013-07-29 20:23:00,61.9,54.0,29.99,West,268,0.0,1.0,74,0.00,,,0.02,weatherlink.com 1.10,2013-07-30 00:23:00,
2013-07-29 20:53:00,59.1,54.0,30.00,WSW,250,0.0,0.0,83,0.00,,,0.02,weatherlink.com 1.10,2013-07-30 00:53:00,
2013-07-29 21:08:00,58.0,54.0,30.00,WSW,245,0.0,0.0,85,0.00,,,0.02,weatherlink.com 1.10,2013-07-30 01:08:00,
2013-07-29 21:23:00,57.4,53.0,30.00,NNW,339,0.0,1.0,84,0.00,,,0.02,weatherlink.com 1.10,2013-07-30 01:23:00,
2013-07-29 21:38:00,57.1,52.0,30.00,West,278,0.0,0.0,84,0.00,,,0.02,weatherlink.com 1.10,2013-07-30 01:38:00,
2013-07-29 21:53:00,56.3,52.0,30.01,SW,228,0.0,1.0,86,0.00,,,0.02,weatherlink.com 1.10,2013-07-30 01:53:00,
2013-07-29 22:08:00,55.2,52.0,30.02,WSW,243,0.0,1.0,89,0.00,,,0.02,weatherlink.com 1.10,2013-07-30 02:08:00,
2013-07-29 22:23:00,54.5,52.0,30.02,SW,225,0.0,1.0,90,0.00,,,0.02,weatherlink.com 1.10,2013-07-30 02:23:00,
2013-07-29 22:38:00,53.5,51.0,30.02,SW,218,0.0,0.0,91,0.00,,,0.02,weatherlink.com 1.10,2013-07-30 02:38:00,
2013-07-29 22:53:00,52.8,51.0,30.03,SW,218,0.0,0.0,92,0.00,,,0.02,weatherlink.com 1.10,2013-07-30 02:53:00,
2013-07-29 23:23:00,51.7,50.0,30.03,SW,218,0.0,0.0,94,0.00,,,0.02,weatherlink.com 1.10,2013-07-30 03:23:00,
2013-07-29 23:38:00,51.5,50.0,30.03,SW,229,0.0,0.0,94,0.00,,,0.02,weatherlink.com 1.10,2013-07-30 03:38:00,
2013-07-29 23:53:00,51.5,50.0,30.03,WSW,254,0.0,1.0,94,0.00,,,0.02,weatherlink.com 1.10,2013-07-30 03:53:00,